{"data":{"norad_id":56128,"epoch":"2026-09-20T00:08:11.942592Z","epoch_age_seconds":151304,"freshness":"FRESH","line1":"1 56128U 23046AN  26263.00569378  .00002321  00000+0  93807-4 0  9992","line2":"2 56128  43.0021 129.9848 0000986 266.3288  93.7451 15.27595687191918","mean_motion":15.27595687,"eccentricity":9.86e-5,"inclination_deg":43.0021,"raan_deg":129.9848,"arg_perigee_deg":266.3288,"mean_anomaly_deg":93.7451,"bstar":9.3807e-5,"rev_number":19191,"period_min":94.265780681011,"perigee_km":482.32561560264,"apogee_km":483.67863223787,"semimajor_km":6861.1391239203,"source":"CELESTRAK","updated_at":"2026-09-21T09:00:33.387469Z"}}